Time,TemperatureF,DewpointF,PressureIn,WindDirection,WindDirectionDegrees,WindSpeedMPH,WindSpeedGustMPH,Humidity,HourlyPrecipIn,Conditions,Clouds,dailyrainin,SolarRadiationWatts/m^2,SoftwareType,DateUTC
2013-01-29 00:01:00,70.0,62.0,-100.00,West,260,7.0,9.0,76,0.01,,,0.03,0.000000,,2013-01-29 10:01:00,
2013-01-29 00:11:00,70.0,62.0,-100.00,West,260,7.0,9.0,76,0.01,,,0.03,0.000000,,2013-01-29 10:11:00,
2013-01-29 00:21:00,70.0,62.0,-100.00,West,260,7.0,9.0,76,0.01,,,0.03,0.000000,,2013-01-29 10:21:00,
2013-01-29 00:32:00,70.0,62.0,-100.00,West,260,7.0,9.0,76,0.01,,,0.03,0.000000,,2013-01-29 10:32:00,
2013-01-29 00:41:00,70.0,62.0,-100.00,West,260,7.0,9.0,76,0.01,,,0.03,0.000000,,2013-01-29 10:41:00,
2013-01-29 01:01:00,70.0,61.0,-100.00,NNW,344,3.0,11.0,73,0.00,,,0.03,0.000000,,2013-01-29 11:01:00,
2013-01-29 01:11:00,70.0,61.0,-100.00,NNW,344,3.0,11.0,73,0.00,,,0.03,0.000000,,2013-01-29 11:11:00,
2013-01-29 01:21:00,70.0,61.0,-100.00,NNW,344,3.0,11.0,73,0.00,,,0.03,0.000000,,2013-01-29 11:21:00,
2013-01-29 01:31:00,70.0,61.0,-100.00,NNW,344,3.0,11.0,73,0.00,,,0.03,0.000000,,2013-01-29 11:31:00,
2013-01-29 01:42:00,70.0,61.0,-100.00,NNW,344,3.0,11.0,73,0.00,,,0.03,0.000000,,2013-01-29 11:42:00,
2013-01-29 02:02:00,71.0,61.0,-100.00,North,9,1.0,8.0,70,0.00,,,0.03,0.000000,,2013-01-29 12:02:00,
2013-01-29 02:12:00,71.0,61.0,-100.00,North,9,1.0,8.0,70,0.00,,,0.03,0.000000,,2013-01-29 12:12:00,
2013-01-29 02:22:00,71.0,61.0,-100.00,North,9,1.0,8.0,70,0.00,,,0.03,0.000000,,2013-01-29 12:22:00,
2013-01-29 02:32:00,71.0,61.0,-100.00,North,9,1.0,8.0,70,0.00,,,0.03,0.000000,,2013-01-29 12:32:00,
2013-01-29 02:42:00,71.0,61.0,-100.00,North,9,1.0,8.0,70,0.00,,,0.03,0.000000,,2013-01-29 12:42:00,
2013-01-29 03:02:00,69.0,60.0,-100.00,NW,313,3.0,13.0,74,0.00,,,0.03,0.000000,,2013-01-29 13:02:00,
2013-01-29 03:11:00,69.0,60.0,-100.00,NW,313,3.0,13.0,74,0.00,,,0.03,0.000000,,2013-01-29 13:11:00,
2013-01-29 03:22:00,69.0,60.0,-100.00,NW,313,3.0,13.0,74,0.00,,,0.03,0.000000,,2013-01-29 13:22:00,
2013-01-29 03:31:00,69.0,60.0,-100.00,NW,313,3.0,13.0,74,0.00,,,0.03,0.000000,,2013-01-29 13:31:00,
2013-01-29 03:42:00,69.0,60.0,-100.00,NW,313,3.0,13.0,74,0.00,,,0.03,0.000000,,2013-01-29 13:42:00,
2013-01-29 04:02:00,70.0,62.0,-100.00,NW,315,4.0,6.0,76,0.00,,,0.03,0.000000,,2013-01-29 14:02:00,
2013-01-29 04:12:00,70.0,62.0,-100.00,NW,315,4.0,6.0,76,0.00,,,0.03,0.000000,,2013-01-29 14:12:00,
2013-01-29 04:21:00,70.0,62.0,-100.00,NW,315,4.0,6.0,76,0.00,,,0.03,0.000000,,2013-01-29 14:21:00,
2013-01-29 04:32:00,70.0,62.0,-100.00,NW,315,4.0,6.0,76,0.00,,,0.03,0.000000,,2013-01-29 14:32:00,
2013-01-29 04:42:00,70.0,62.0,-100.00,NW,315,4.0,6.0,76,0.00,,,0.03,0.000000,,2013-01-29 14:42:00,
2013-01-29 05:02:00,70.0,61.0,-100.00,NNW,330,2.0,6.0,74,0.00,,,0.03,0.000000,,2013-01-29 15:02:00,
2013-01-29 05:12:00,70.0,61.0,-100.00,NNW,330,2.0,6.0,74,0.00,,,0.03,0.000000,,2013-01-29 15:12:00,
2013-01-29 05:22:00,70.0,61.0,-100.00,NNW,330,2.0,6.0,74,0.00,,,0.03,0.000000,,2013-01-29 15:22:00,
2013-01-29 05:32:00,70.0,61.0,-100.00,NNW,330,2.0,6.0,74,0.00,,,0.03,0.000000,,2013-01-29 15:32:00,
2013-01-29 05:42:00,70.0,61.0,-100.00,NNW,330,2.0,6.0,74,0.00,,,0.03,0.000000,,2013-01-29 15:42:00,
2013-01-29 06:12:00,70.0,62.0,-100.00,North,350,2.0,5.0,76,0.00,,,0.03,0.000000,,2013-01-29 16:12:00,
2013-01-29 06:22:00,70.0,62.0,-100.00,North,350,2.0,5.0,76,0.00,,,0.03,0.000000,,2013-01-29 16:22:00,
2013-01-29 06:32:00,70.0,62.0,-100.00,North,350,2.0,5.0,76,0.00,,,0.03,0.000000,,2013-01-29 16:32:00,
2013-01-29 06:42:00,70.0,62.0,-100.00,North,350,2.0,5.0,76,0.00,,,0.03,0.000000,,2013-01-29 16:42:00,
2013-01-29 07:03:00,69.0,61.0,-100.00,NW,326,2.0,7.0,77,0.00,,,0.03,0.000000,,2013-01-29 17:03:00,
2013-01-29 07:12:00,69.0,61.0,-100.00,NW,326,2.0,7.0,77,0.00,,,0.03,0.000000,,2013-01-29 17:12:00,
2013-01-29 07:21:00,69.0,61.0,-100.00,NW,326,2.0,7.0,77,0.00,,,0.03,0.000000,,2013-01-29 17:21:00,
2013-01-29 07:32:00,69.0,61.0,-100.00,NW,326,2.0,7.0,77,0.00,,,0.03,0.000000,,2013-01-29 17:32:00,
2013-01-29 07:42:00,69.0,61.0,-100.00,NW,326,2.0,7.0,77,0.00,,,0.03,0.000000,,2013-01-29 17:42:00,
2013-01-29 08:12:00,70.0,62.0,-100.00,ENE,64,2.0,11.0,77,0.00,,,0.03,13.000000,,2013-01-29 18:12:00,
2013-01-29 08:22:00,70.0,62.0,-100.00,ENE,64,2.0,11.0,77,0.00,,,0.03,13.000000,,2013-01-29 18:22:00,
2013-01-29 08:33:00,70.0,62.0,-100.00,ENE,64,2.0,11.0,77,0.00,,,0.03,13.000000,,2013-01-29 18:33:00,
2013-01-29 08:42:00,70.0,62.0,-100.00,ENE,64,2.0,11.0,77,0.00,,,0.03,13.000000,,2013-01-29 18:42:00,
2013-01-29 09:02:00,70.0,63.0,-100.00,NE,34,3.0,6.0,79,0.03,,,0.06,57.000000,,2013-01-29 19:02:00,
2013-01-29 09:12:00,70.0,63.0,-100.00,NE,34,3.0,6.0,79,0.03,,,0.06,57.000000,,2013-01-29 19:12:00,
2013-01-29 09:22:00,70.0,63.0,-100.00,NE,34,3.0,6.0,79,0.03,,,0.06,57.000000,,2013-01-29 19:22:00,
2013-01-29 09:32:00,70.0,63.0,-100.00,NE,34,3.0,6.0,79,0.03,,,0.06,57.000000,,2013-01-29 19:32:00,
2013-01-29 09:42:00,70.0,63.0,-100.00,NE,34,3.0,6.0,79,0.03,,,0.06,57.000000,,2013-01-29 19:42:00,
2013-01-29 10:02:00,70.0,63.0,-100.00,NNW,339,1.0,4.0,79,0.02,,,0.07,132.000000,,2013-01-29 20:02:00,
2013-01-29 10:12:00,70.0,63.0,-100.00,NNW,339,1.0,4.0,79,0.02,,,0.07,132.000000,,2013-01-29 20:12:00,
2013-01-29 10:22:00,70.0,63.0,-100.00,NNW,339,1.0,4.0,79,0.02,,,0.07,132.000000,,2013-01-29 20:22:00,
2013-01-29 10:32:00,70.0,63.0,-100.00,NNW,339,1.0,4.0,79,0.02,,,0.07,132.000000,,2013-01-29 20:32:00,
2013-01-29 10:41:00,70.0,63.0,-100.00,NNW,339,1.0,4.0,79,0.02,,,0.07,132.000000,,2013-01-29 20:41:00,
2013-01-29 11:02:00,72.0,65.0,-100.00,SSW,204,5.0,9.0,79,0.02,,,0.09,210.000000,,2013-01-29 21:02:00,
2013-01-29 11:12:00,72.0,65.0,-100.00,SSW,204,5.0,9.0,79,0.02,,,0.09,210.000000,,2013-01-29 21:12:00,
2013-01-29 11:22:00,72.0,65.0,-100.00,SSW,204,5.0,9.0,79,0.02,,,0.09,210.000000,,2013-01-29 21:22:00,
2013-01-29 11:33:00,72.0,65.0,-100.00,SSW,204,5.0,9.0,79,0.02,,,0.09,210.000000,,2013-01-29 21:33:00,
2013-01-29 11:42:00,72.0,65.0,-100.00,SSW,204,5.0,9.0,79,0.02,,,0.09,210.000000,,2013-01-29 21:42:00,
2013-01-29 12:12:00,74.0,66.0,-100.00,WNW,284,4.0,9.0,76,0.01,,,0.10,419.000000,,2013-01-29 22:12:00,
2013-01-29 12:21:00,74.0,66.0,-100.00,WNW,284,4.0,9.0,76,0.01,,,0.10,419.000000,,2013-01-29 22:21:00,
2013-01-29 12:32:00,74.0,66.0,-100.00,WNW,284,4.0,9.0,76,0.01,,,0.10,419.000000,,2013-01-29 22:32:00,
2013-01-29 12:42:00,74.0,66.0,-100.00,WNW,284,4.0,9.0,76,0.01,,,0.10,419.000000,,2013-01-29 22:42:00,
2013-01-29 13:02:00,77.0,63.0,-100.00,SSW,205,5.0,11.0,63,0.00,,,0.10,737.000000,,2013-01-29 23:02:00,
2013-01-29 13:12:00,77.0,63.0,-100.00,SSW,205,5.0,11.0,63,0.00,,,0.10,737.000000,,2013-01-29 23:12:00,
2013-01-29 13:22:00,77.0,63.0,-100.00,SSW,205,5.0,11.0,63,0.00,,,0.10,737.000000,,2013-01-29 23:22:00,
2013-01-29 13:32:00,77.0,63.0,-100.00,SSW,205,5.0,11.0,63,0.00,,,0.10,737.000000,,2013-01-29 23:32:00,
2013-01-29 13:41:00,77.0,63.0,-100.00,SSW,205,5.0,11.0,63,0.00,,,0.10,737.000000,,2013-01-29 23:41:00,
2013-01-29 14:02:00,75.0,64.0,-100.00,SSW,212,10.0,16.0,69,0.00,,,0.10,400.000000,,2013-01-30 00:02:00,
2013-01-29 14:11:00,75.0,64.0,-100.00,SSW,212,10.0,16.0,69,0.00,,,0.10,400.000000,,2013-01-30 00:11:00,
2013-01-29 14:22:00,75.0,64.0,-100.00,SSW,212,10.0,16.0,69,0.00,,,0.10,400.000000,,2013-01-30 00:22:00,
2013-01-29 14:32:00,75.0,64.0,-100.00,SSW,212,10.0,16.0,69,0.00,,,0.10,400.000000,,2013-01-30 00:32:00,
2013-01-29 14:42:00,75.0,64.0,-100.00,SSW,212,10.0,16.0,69,0.00,,,0.10,400.000000,,2013-01-30 00:42:00,
2013-01-29 15:11:00,76.0,67.0,-100.00,West,266,6.0,14.0,74,0.00,,,0.10,348.000000,,2013-01-30 01:11:00,
2013-01-29 15:22:00,76.0,67.0,-100.00,West,266,6.0,14.0,74,0.00,,,0.10,348.000000,,2013-01-30 01:22:00,
2013-01-29 15:32:00,76.0,67.0,-100.00,West,266,6.0,14.0,74,0.00,,,0.10,348.000000,,2013-01-30 01:32:00,
2013-01-29 15:42:00,76.0,67.0,-100.00,West,266,6.0,14.0,74,0.00,,,0.10,348.000000,,2013-01-30 01:42:00,
2013-01-29 16:02:00,77.0,62.0,-100.00,SW,229,5.0,12.0,60,0.00,,,0.10,467.000000,,2013-01-30 02:02:00,
2013-01-29 16:12:00,77.0,62.0,-100.00,SW,229,5.0,12.0,60,0.00,,,0.10,467.000000,,2013-01-30 02:12:00,
2013-01-29 16:21:00,77.0,62.0,-100.00,SW,229,5.0,12.0,60,0.00,,,0.10,467.000000,,2013-01-30 02:21:00,
2013-01-29 16:33:00,77.0,62.0,-100.00,SW,229,5.0,12.0,60,0.00,,,0.10,467.000000,,2013-01-30 02:33:00,
2013-01-29 16:41:00,77.0,62.0,-100.00,SW,229,5.0,12.0,60,0.00,,,0.10,467.000000,,2013-01-30 02:41:00,
2013-01-29 17:02:00,78.0,63.0,-100.00,SSW,195,5.0,11.0,61,0.00,,,0.10,216.000000,,2013-01-30 03:02:00,
2013-01-29 17:11:00,78.0,63.0,-100.00,SSW,195,5.0,11.0,61,0.00,,,0.10,216.000000,,2013-01-30 03:11:00,
2013-01-29 17:22:00,78.0,63.0,-100.00,SSW,195,5.0,11.0,61,0.00,,,0.10,216.000000,,2013-01-30 03:22:00,
2013-01-29 17:31:00,78.0,63.0,-100.00,SSW,195,5.0,11.0,61,0.00,,,0.10,216.000000,,2013-01-30 03:31:00,
2013-01-29 17:41:00,78.0,63.0,-100.00,SSW,195,5.0,11.0,61,0.00,,,0.10,216.000000,,2013-01-30 03:41:00,
2013-01-29 18:02:00,76.0,62.0,-100.00,South,191,2.0,8.0,63,0.00,,,0.10,108.000000,,2013-01-30 04:02:00,
2013-01-29 18:11:00,76.0,62.0,-100.00,South,191,2.0,8.0,63,0.00,,,0.10,108.000000,,2013-01-30 04:11:00,
2013-01-29 18:22:00,76.0,62.0,-100.00,South,191,2.0,8.0,63,0.00,,,0.10,108.000000,,2013-01-30 04:22:00,
2013-01-29 18:32:00,76.0,62.0,-100.00,South,191,2.0,8.0,63,0.00,,,0.10,108.000000,,2013-01-30 04:32:00,
2013-01-29 18:41:00,76.0,62.0,-100.00,South,191,2.0,8.0,63,0.00,,,0.10,108.000000,,2013-01-30 04:41:00,
2013-01-29 19:03:00,72.0,64.0,-100.00,South,175,12.0,16.0,76,0.00,,,0.10,7.000000,,2013-01-30 05:03:00,
2013-01-29 19:12:00,72.0,64.0,-100.00,South,175,12.0,16.0,76,0.00,,,0.10,7.000000,,2013-01-30 05:12:00,
2013-01-29 19:22:00,72.0,64.0,-100.00,South,175,12.0,16.0,76,0.00,,,0.10,7.000000,,2013-01-30 05:22:00,
2013-01-29 19:32:00,72.0,64.0,-100.00,South,175,12.0,16.0,76,0.00,,,0.10,7.000000,,2013-01-30 05:32:00,
2013-01-29 19:42:00,72.0,64.0,-100.00,South,175,12.0,16.0,76,0.00,,,0.10,7.000000,,2013-01-30 05:42:00,
2013-01-29 20:11:00,69.0,62.0,-100.00,South,172,10.0,18.0,79,0.00,,,0.10,0.000000,,2013-01-30 06:11:00,
2013-01-29 20:21:00,69.0,62.0,-100.00,South,172,10.0,18.0,79,0.00,,,0.10,0.000000,,2013-01-30 06:21:00,
2013-01-29 20:31:00,69.0,62.0,-100.00,South,172,10.0,18.0,79,0.00,,,0.10,0.000000,,2013-01-30 06:31:00,
2013-01-29 20:41:00,69.0,62.0,-100.00,South,172,10.0,18.0,79,0.00,,,0.10,0.000000,,2013-01-30 06:41:00,
2013-01-29 21:01:00,69.0,62.0,-100.00,NW,311,3.0,14.0,79,0.00,,,0.10,0.000000,,2013-01-30 07:01:00,
2013-01-29 21:11:00,69.0,62.0,-100.00,NW,311,3.0,14.0,79,0.00,,,0.10,0.000000,,2013-01-30 07:11:00,
2013-01-29 21:21:00,69.0,62.0,-100.00,NW,311,3.0,14.0,79,0.00,,,0.10,0.000000,,2013-01-30 07:21:00,
2013-01-29 21:31:00,69.0,62.0,-100.00,NW,311,3.0,14.0,79,0.00,,,0.10,0.000000,,2013-01-30 07:31:00,
2013-01-29 21:41:00,69.0,62.0,-100.00,NW,311,3.0,14.0,79,0.00,,,0.10,0.000000,,2013-01-30 07:41:00,
2013-01-29 22:01:00,69.0,63.0,-100.00,NW,312,6.0,9.0,80,0.00,,,0.10,0.000000,,2013-01-30 08:01:00,
2013-01-29 22:11:00,69.0,63.0,-100.00,NW,312,6.0,9.0,80,0.00,,,0.10,0.000000,,2013-01-30 08:11:00,
2013-01-29 22:21:00,69.0,63.0,-100.00,NW,312,6.0,9.0,80,0.00,,,0.10,0.000000,,2013-01-30 08:21:00,
2013-01-29 22:32:00,69.0,63.0,-100.00,NW,312,6.0,9.0,80,0.00,,,0.10,0.000000,,2013-01-30 08:32:00,
2013-01-29 22:41:00,69.0,63.0,-100.00,NW,312,6.0,9.0,80,0.00,,,0.10,0.000000,,2013-01-30 08:41:00,
2013-01-29 23:01:00,69.0,62.0,-100.00,WNW,291,7.0,10.0,78,0.00,,,0.09,0.000000,,2013-01-30 09:01:00,
2013-01-29 23:11:00,69.0,62.0,-100.00,WNW,291,7.0,10.0,78,0.00,,,0.09,0.000000,,2013-01-30 09:11:00,
2013-01-29 23:21:00,69.0,62.0,-100.00,WNW,291,7.0,10.0,78,0.00,,,0.09,0.000000,,2013-01-30 09:21:00,
2013-01-29 23:31:00,69.0,62.0,-100.00,WNW,291,7.0,10.0,78,0.00,,,0.09,0.000000,,2013-01-30 09:31:00,
2013-01-29 23:41:00,69.0,62.0,-100.00,WNW,291,7.0,10.0,78,0.00,,,0.09,0.000000,,2013-01-30 09:41:00,